• Em Portugal
  • Lista de países
  • Para 7 dias
  • Temperatura da água
  • Mapas de satélite
  • Mapa do tempo
  • Widgets de tempo
  • user-avatar
    Iniciar Sessão

    Previsão horária em Oruro

    Hoje, 18 Setembro, Terça-feira

    Tempo Temperatura Precipitação Vento Pressão Humidade
    00:00 +4°C° 0 mm 2 m/s 474 mmHg 29%
    01:00 +4°C° 0 mm 2 m/s 473 mmHg 31%
    02:00 +3°C° 0 mm 2 m/s 472 mmHg 36%
    03:00 +3°C° 0 mm 1 m/s 472 mmHg 36%
    04:00 +3°C° 0 mm 1 m/s 471 mmHg 37%
    05:00 +2°C° 0 mm 1 m/s 471 mmHg 37%
    06:00 +4°C° 0 mm 1 m/s 472 mmHg 33%
    07:00 +5°C° 0 mm 1 m/s 473 mmHg 29%
    08:00 +6°C° 0 mm 2 m/s 475 mmHg 26%
    09:00 +8°C° 0 mm 2 m/s 476 mmHg 20%
    10:00 +10°C° 0 mm 2 m/s 477 mmHg 14%
    11:00 +11°C° 0 mm 3 m/s 478 mmHg 9%
    12:00 +12°C° 0 mm 3 m/s 478 mmHg 7%
    13:00 +14°C° 0 mm 3 m/s 478 mmHg 6%
    14:00 +16°C° 0 mm 3 m/s 478 mmHg 5%
    15:00 +15°C° 0 mm 4 m/s 478 mmHg 5%
    16:00 +15°C° 0 mm 4 m/s 478 mmHg 4%
    17:00 +15°C° 0 mm 4 m/s 477 mmHg 4%
    18:00 +13°C° 0 mm 4 m/s 477 mmHg 8%
    19:00 +11°C° 0 mm 3 m/s 476 mmHg 12%
    20:00 +10°C° 0 mm 3 m/s 475 mmHg 15%
    21:00 +9°C° 0 mm 3 m/s 475 mmHg 23%
    22:00 +8°C° 0 mm 3 m/s 475 mmHg 31%
    23:00 +7°C° 0 mm 3 m/s 475 mmHg 39%

    Amanhã, 19 Setembro, Quarta-feira

    Tempo Temperatura Precipitação Vento Pressão Humidade
    00:00 +5°C° 0 mm 3 m/s 474 mmHg 42%
    01:00 +5°C° 0 mm 2 m/s 474 mmHg 44%
    02:00 +4°C° 0 mm 2 m/s 473 mmHg 47%
    03:00 +4°C° 0 mm 2 m/s 473 mmHg 45%
    04:00 +4°C° 0 mm 1 m/s 472 mmHg 42%
    05:00 +3°C° 0 mm 1 m/s 471 mmHg 40%
    06:00 +4°C° 0 mm 1 m/s 473 mmHg 35%
    07:00 +6°C° 0 mm 1 m/s 474 mmHg 30%
    08:00 +7°C° 0 mm 1 m/s 475 mmHg 24%
    09:00 +8°C° 0 mm 2 m/s 476 mmHg 19%
    10:00 +10°C° 0 mm 2 m/s 478 mmHg 14%
    11:00 +12°C° 0 mm 3 m/s 479 mmHg 9%
    12:00 +14°C° 0 mm 3 m/s 479 mmHg 7%
    13:00 +15°C° 0 mm 4 m/s 479 mmHg 6%
    14:00 +17°C° 0 mm 4 m/s 479 mmHg 4%
    15:00 +17°C° 0 mm 4 m/s 479 mmHg 4%
    16:00 +17°C° 0 mm 4 m/s 479 mmHg 5%
    17:00 +17°C° 0 mm 4 m/s 478 mmHg 5%
    18:00 +14°C° 0 mm 3 m/s 477 mmHg 11%
    19:00 +12°C° 0 mm 3 m/s 476 mmHg 17%
    20:00 +10°C° 0 mm 2 m/s 476 mmHg 23%
    21:00 +9°C° 0 mm 2 m/s 476 mmHg 30%
    22:00 +8°C° 0 mm 2 m/s 476 mmHg 37%
    23:00 +7°C° 0 mm 2 m/s 476 mmHg 44%

    Depois de amanhã, 20 Setembro, Quinta-feira

    Tempo Temperatura Precipitação Vento Pressão Humidade
    00:00 +6°C° 0 mm 2 m/s 475 mmHg 49%
    01:00 +6°C° 0 mm 2 m/s 475 mmHg 55%
    02:00 +5°C° 0 mm 2 m/s 474 mmHg 60%
    03:00 +4°C° 0 mm 2 m/s 474 mmHg 62%
    04:00 +4°C° 0 mm 2 m/s 473 mmHg 64%
    05:00 +3°C° 0 mm 2 m/s 472 mmHg 66%
    06:00 +4°C° 0 mm 2 m/s 474 mmHg 55%
    07:00 +6°C° 0 mm 2 m/s 475 mmHg 45%
    08:00 +7°C° 0 mm 2 m/s 476 mmHg 35%
    09:00 +9°C° 0 mm 3 m/s 477 mmHg 27%
    10:00 +11°C° 0 mm 3 m/s 479 mmHg 19%
    11:00 +13°C° 0 mm 3 m/s 480 mmHg 12%
    12:00 +14°C° 0 mm 3 m/s 480 mmHg 10%
    13:00 +17°C° 0 mm 3 m/s 480 mmHg 9%
    14:00 +18°C° 0 mm 2 m/s 480 mmHg 7%
    15:00 +18°C° 0 mm 3 m/s 479 mmHg 8%
    16:00 +18°C° 0 mm 3 m/s 479 mmHg 9%
    17:00 +18°C° 0 mm 4 m/s 479 mmHg 9%
    18:00 +15°C° 0 mm 4 m/s 478 mmHg 18%
    19:00 +13°C° 0 mm 4 m/s 478 mmHg 27%
    20:00 +10°C° 0 mm 5 m/s 477 mmHg 36%
    21:00 +9°C° 0 mm 5 m/s 477 mmHg 44%
    22:00 +8°C° 0 mm 5 m/s 477 mmHg 52%
    23:00 +7°C° 0 mm 4 m/s 477 mmHg 60%

    21 Setembro, Sexta-feira

    Tempo Temperatura Precipitação Vento Pressão Humidade
    00:00 +6°C° 0 mm 4 m/s 476 mmHg 62%
    01:00 +7°C° 0 mm 3 m/s 476 mmHg 64%
    02:00 +6°C° 0 mm 2 m/s 475 mmHg 66%
    03:00 +6°C° 0 mm 2 m/s 475 mmHg 67%
    04:00 +5°C° 0 mm 2 m/s 474 mmHg 69%
    05:00 +5°C° 0 mm 2 m/s 474 mmHg 70%
    06:00 +6°C° 0 mm 2 m/s 475 mmHg 64%
    07:00 +7°C° 0 mm 2 m/s 476 mmHg 59%
    08:00 +8°C° 0 mm 2 m/s 477 mmHg 54%
    09:00 +10°C° 0 mm 2 m/s 478 mmHg 44%
    10:00 +13°C° 0 mm 2 m/s 479 mmHg 34%
    11:00 +14°C° 0 mm 3 m/s 480 mmHg 24%
    12:00 +16°C° 0 mm 3 m/s 480 mmHg 21%
    13:00 +17°C° 0 mm 2 m/s 480 mmHg 18%
    14:00 +18°C° 0 mm 2 m/s 480 mmHg 14%
    15:00 +18°C° 0.1 mm 3 m/s 479 mmHg 15%
    16:00 +17°C° 0.1 mm 3 m/s 479 mmHg 17%
    17:00 +17°C° 0.1 mm 3 m/s 479 mmHg 18%
    18:00 +14°C° 0 mm 4 m/s 478 mmHg 28%
    19:00 +11°C° 0 mm 6 m/s 477 mmHg 38%
    20:00 +10°C° 0 mm 7 m/s 477 mmHg 48%
    21:00 +9°C° 0 mm 6 m/s 477 mmHg 50%
    22:00 +8°C° 0 mm 5 m/s 477 mmHg 51%
    23:00 +7°C° 0 mm 4 m/s 476 mmHg 53%

    22 Setembro, Sábado

    Tempo Temperatura Precipitação Vento Pressão Humidade
    00:00 +8°C° 0 mm 3 m/s 476 mmHg 55%
    01:00 +7°C° 0 mm 3 m/s 475 mmHg 57%
    02:00 +7°C° 0 mm 2 m/s 475 mmHg 58%
    03:00 +6°C° 0 mm 2 m/s 474 mmHg 60%
    04:00 +6°C° 0 mm 2 m/s 474 mmHg 62%
    05:00 +5°C° 0 mm 2 m/s 474 mmHg 64%
    06:00 +6°C° 0 mm 2 m/s 475 mmHg 59%
    07:00 +8°C° 0 mm 3 m/s 476 mmHg 54%
    08:00 +8°C° 0 mm 4 m/s 477 mmHg 49%
    09:00 +10°C° 0 mm 4 m/s 478 mmHg 43%
    10:00 +12°C° 0 mm 4 m/s 479 mmHg 36%
    11:00 +14°C° 0 mm 4 m/s 480 mmHg 30%
    12:00 +16°C° 0 mm 3 m/s 479 mmHg 26%
    13:00 +17°C° 0 mm 3 m/s 479 mmHg 23%
    14:00 +18°C° 0 mm 3 m/s 479 mmHg 19%
    15:00 +17°C° 0.1 mm 3 m/s 479 mmHg 21%
    16:00 +17°C° 0.1 mm 4 m/s 478 mmHg 22%
    17:00 +17°C° 0.1 mm 4 m/s 478 mmHg 23%
    18:00 +14°C° 0 mm 5 m/s 477 mmHg 31%
    19:00 +11°C° 0 mm 6 m/s 477 mmHg 38%
    20:00 +10°C° 0 mm 6 m/s 476 mmHg 45%
    21:00 +9°C° 0 mm 5 m/s 476 mmHg 46%
    22:00 +9°C° 0 mm 5 m/s 476 mmHg 46%
    23:00 +8°C° 0 mm 4 m/s 477 mmHg 46%

    23 Setembro, Domingo

    Tempo Temperatura Precipitação Vento Pressão Humidade
    00:00 +8°C° 0 mm 4 m/s 476 mmHg 48%
    01:00 +7°C° 0 mm 4 m/s 476 mmHg 50%
    02:00 +8°C° 0 mm 3 m/s 475 mmHg 51%
    03:00 +7°C° 0 mm 3 m/s 475 mmHg 55%
    04:00 +7°C° 0 mm 2 m/s 474 mmHg 58%
    05:00 +6°C° 0 mm 2 m/s 474 mmHg 62%
    06:00 +7°C° 0 mm 2 m/s 475 mmHg 58%
    07:00 +8°C° 0 mm 2 m/s 476 mmHg 54%
    08:00 +9°C° 0 mm 3 m/s 477 mmHg 50%
    09:00 +11°C° 0 mm 3 m/s 478 mmHg 42%
    10:00 +12°C° 0 mm 3 m/s 479 mmHg 35%
    11:00 +14°C° 0 mm 3 m/s 479 mmHg 27%
    12:00 +15°C° 0 mm 4 m/s 479 mmHg 26%
    13:00 +16°C° 0 mm 5 m/s 479 mmHg 24%
    14:00 +16°C° 0 mm 5 m/s 479 mmHg 22%
    15:00 +16°C° 0 mm 6 m/s 479 mmHg 25%
    16:00 +15°C° 0 mm 7 m/s 478 mmHg 28%
    17:00 +13°C° 0 mm 8 m/s 478 mmHg 31%
    18:00 +12°C° 0.6 mm 7 m/s 478 mmHg 38%
    19:00 +10°C° 0.6 mm 6 m/s 477 mmHg 45%
    20:00 +8°C° 0.6 mm 5 m/s 477 mmHg 52%
    21:00 +8°C° 0.2 mm 4 m/s 477 mmHg 53%
    22:00 +8°C° 0.2 mm 4 m/s 477 mmHg 53%
    23:00 +9°C° 0.2 mm 3 m/s 477 mmHg 53%
    Mostrar mais